Aérodrome :
LOGIN :

S'inscrire | Disclaimer

   EN    FR    IT 

 










Légende :    VFR   VFR Marginal   IFR   IFR Intensif   IFR Très Intensif
Visi : 
Plafond : 
>= 8 km
>= 3000ft
5 à 8 km
1000 à 3000 ft
1500m à 5 km
500 à 1000 ft
800 à 1500m
200 à 500 ft
< 800m
< 200 ft
Symboles :   Orages  Brouillard  Fortes neiges  Fortes précipitations  Vent > 20 kt
SIGMETs :   Divers  Orages  Givrage  Turbulence  Onde Orograph.  Cendres Volcan.







- Altitude de l'aérodrome : 47 ft
- Code IATA : BDS


LIBR - Casale Arpt. Brindisi

DERNIER METAR :
  • 232245Z 30003KT CAVOK 22/20 Q1018 NOSIG

METARs EXPIRÉS :
  • 232215Z 30003KT CAVOK 23/20 Q1018 NOSIG
  • 232145Z 36005KT CAVOK 24/20 Q1018 NOSIG
  • 232115Z 36005KT CAVOK 24/20 Q1018 NOSIG
  • 232045Z 35003KT CAVOK 24/20 Q1018 NOSIG
  • 232015Z 35003KT CAVOK 24/20 Q1018 NOSIG

TAF TAF LIBR
Valide du 23 à 18h jusqu'au 24 à 18h UTC


231700Z 2318/2418 32008KT CAVOK
BECMG 2407/2409 35015KT
Pas de NOTAMs connus pour ce terrain.



MET'MAP, la Météo Aéronautique d'un coup d'oeil ! - Copyright ORBIFLY Décembre 2007 - Disclaimer

ORBIFLY MET'MAP TEAM :

Programmation & Développement : Alexandra Zaïnal
Conception & Développement : Baudouin d'Aumeries
Co-Programmation & Développement : Marc-Olivier Méhu
Soutien technique & logistique : Manuel Goepfert

Contact : metmap@orbifly.com




SOURCES & CREDITS :

   NOAA